Location: Prescott
(34.5400°N, 112.4680°W)
Time: 15:49:11
(UTC-07:00)

Amateur Radio Satellites - All Passes

Search period start: 20 October 2014 15:19
Search period end: 21 October 2014 15:19
Location: Prescott, 34.5400°N, 112.4680°W

Satellite Date Start Highest point End Downlink Frequencies (MHz)
Time Altitude Azimuth
Sapphire 20 Oct 15:28:24 15:32:28 22° 254° (WSW) 15:36:32 437.095 MHz 1200 baud AX-25 AFSK
PCSat 20 Oct 15:53:34 15:55:18 12° 258° (WSW) 15:57:02 145.825 MHz
UOSAT-12 20 Oct 16:07:27 16:11:39 34° 305° (NW) 16:15:56 437.025 FM, 437.400 FM
AO-7 20 Oct 16:24:12 16:32:23 64° 256° (WSW) 16:40:36 29.400 - 29.500 MHz
Saudisat 1A 20 Oct 16:35:40 16:38:38 17° 50° (NE) 16:41:35 436.775 MHz
OPAL 20 Oct 16:39:55 16:42:58 16° 96° (E) 16:46:00 ?
Uosat F 20 Oct 16:48:56 16:53:34 38° 261° (W) 16:58:14 435.120 FM
JAS-2 20 Oct 16:57:10 17:02:34 51° 71° (ENE) 17:08:39 435.800 - 435.900 CW/SSB, 435.910 FM
Hamsat 20 Oct 17:50:51 17:55:02 63° 259° (W) 17:59:13 145.90 MHz
Saudisat 1A 20 Oct 18:14:11 18:18:24 44° 245° (WSW) 18:22:35 436.775 MHz
STRAND 1 20 Oct 18:16:29 18:19:50 17° 94° (E) 18:23:09 ?
OPAL 20 Oct 18:17:19 18:22:03 46° 290° (WNW) 18:26:44 ?
AO-40 20 Oct 18:24:32 22:03:51 44° 190° (S) 03:48:35 Beacon 2401.320
JAS-2 20 Oct 18:44:20 18:48:07 18° 270° (W) 18:52:11 435.800 - 435.900 CW/SSB, 435.910 FM
SO-67 20 Oct 19:08:08 19:11:29 55° 260° (W) 19:14:53 435.3500 MHz FM
ISS 20 Oct 19:52:39 19:54:36 15° 29° (NNE) 19:56:32 145.800 FM
STRAND 1 20 Oct 19:54:17 19:59:12 46° 288° (WNW) 20:04:05 ?
HO-68 20 Oct 20:09:36 20:16:26 51° 69° (ENE) 20:23:18 435.675 MHz FM
KITSAT 1 20 Oct 20:18:58 20:23:53 17° 41° (NE) 20:28:47 435.175 FM
UKube-1 20 Oct 20:40:34 20:44:07 25° 70° (ENE) 20:47:41 145.840 MHz, 145.915 MHz
RS-15 20 Oct 20:58:24 21:06:32 24° 103° (ESE) 21:14:31 29.354 - 29.394 USB, Beacon 29.352 USB
FUNcube-1 20 Oct 21:12:33 21:16:01 21° 69° (ENE) 21:19:28 145.950 - 145.970 MHz USB
Oscar 11 20 Oct 21:25:21 21:29:40 74° 76° (ENE) 21:34:00 145.825 FM, Beacon 2401.500 USB
ISS 20 Oct 21:28:17 21:31:36 66° 225° (SW) 21:34:54 145.800 FM
HO-68 20 Oct 21:58:34 22:04:19 26° 264° (W) 22:10:07 435.675 MHz FM
ZACube-1 20 Oct 22:01:36 22:06:12 78° 77° (ENE) 22:10:48 437.345 MHz
KITSAT 1 20 Oct 22:12:33 22:20:39 76° 62° (ENE) 22:28:42 435.175 FM
UKube-1 20 Oct 22:16:45 22:20:12 23° 264° (W) 22:23:41 145.840 MHz, 145.915 MHz
FUNcube-1 20 Oct 22:48:05 22:52:10 31° 263° (W) 22:56:14 145.950 - 145.970 MHz USB
SO-50 20 Oct 22:52:17 22:57:09 72° 60° (ENE) 23:02:01 436.795 FM
RS-15 20 Oct 23:06:39 23:17:42 75° 300° (WNW) 23:28:39 29.354 - 29.394 USB, Beacon 29.352 USB
KITSAT 1 21 Oct 00:09:57 00:15:08 19° 258° (WSW) 00:20:20 435.175 FM
MaSat-1 21 Oct 00:15:02 00:19:26 83° 113° (ESE) 00:23:28 437.345 MHz
SO-50 21 Oct 00:36:01 00:37:05 11° 254° (WSW) 00:38:09 436.795 FM
UOSAT-12 21 Oct 00:39:52 00:44:36 78° 60° (ENE) 00:49:12 437.025 FM, 437.400 FM
Oscar 16 21 Oct 01:11:15 01:15:19 24° 96° (E) 01:19:23 437.025 USB, Beacon 2401.1428
JAS-1B 21 Oct 01:22:03 01:27:57 31° 99° (E) 01:34:45 435.800 - 435.900 CW/SSB
RS-15 21 Oct 01:24:30 01:32:13 21° 326° (NW) 01:40:00 29.354 - 29.394 USB, Beacon 29.352 USB
Uribyol 2 21 Oct 01:24:53 01:26:53 12° 92° (E) 01:28:52 436.500 FM
ITAMSAT 1 21 Oct 01:29:32 01:31:49 13° 92° (E) 01:34:06 435.822 SSB
AO-Echo 21 Oct 01:40:39 01:44:56 25° 95° (E) 01:49:12 ?
Oscar 19 21 Oct 02:04:37 02:09:45 84° 103° (ESE) 02:14:52 437.125 CW, 437.150 USB
AO-27 21 Oct 02:11:51 02:16:41 37° 98° (E) 02:21:29 436.795 MHz FM
Oscar 10/S400 21 Oct 02:47:40 03:20:25 12° 255° (WSW) 04:04:47 145.825 - 145.975 CW/USB, Beacon 145.810 USB
Oscar 16 21 Oct 02:50:06 02:54:40 33° 290° (WNW) 02:59:12 437.025 USB, Beacon 2401.1428
Gurwin Techsat 1B 21 Oct 03:01:26 03:06:42 59° 101° (E) 03:11:55 435.225 FM
Uribyol 2 21 Oct 03:01:34 03:06:44 65° 286° (WNW) 03:11:51 436.500 FM
PCSat 21 Oct 03:04:41 03:07:44 15° 104° (ESE) 03:10:47 145.825 MHz
ITAMSAT 1 21 Oct 03:06:30 03:11:40 62° 286° (WNW) 03:16:47 435.822 SSB
JAS-1B 21 Oct 03:12:25 03:18:30 42° 289° (WNW) 03:25:39 435.800 - 435.900 CW/SSB
TMSAT-1 21 Oct 03:15:28 03:20:42 59° 101° (E) 03:25:55 436.925 FM
AO-Echo 21 Oct 03:18:54 03:23:40 35° 289° (WNW) 03:28:27 ?
RS-15 21 Oct 03:48:54 03:51:09 11° 4° (N) 03:53:25 29.354 - 29.394 USB, Beacon 29.352 USB
OPAL 21 Oct 03:51:09 03:55:04 22° 65° (ENE) 03:58:57 ?
AO-27 21 Oct 03:51:55 03:55:55 23° 293° (WNW) 03:59:54 436.795 MHz FM
JAS-2 21 Oct 04:14:23 04:15:18 10° 87° (E) 04:16:14 435.800 - 435.900 CW/SSB, 435.910 FM
Sapphire 21 Oct 04:22:07 04:27:30 80° 114° (ESE) 04:32:56 437.095 MHz 1200 baud AX-25 AFSK
AO-7 21 Oct 04:29:39 04:37:48 56° 103° (ESE) 04:45:55 29.400 - 29.500 MHz
Gurwin Techsat 1B 21 Oct 04:43:09 04:46:06 15° 296° (WNW) 04:49:04 435.225 FM
PCSat 21 Oct 04:45:16 04:50:34 58° 298° (WNW) 04:55:56 145.825 MHz
TMSAT-1 21 Oct 04:57:07 05:00:04 15° 296° (WNW) 05:03:01 436.925 FM
Uosat F 21 Oct 04:59:43 05:04:48 88° 104° (ESE) 05:09:50 435.120 FM
OPAL 21 Oct 05:28:50 05:33:39 39° 259° (W) 05:38:27 ?
STRAND 1 21 Oct 05:29:22 05:32:47 18° 66° (ENE) 05:36:14 ?
Hamsat 21 Oct 05:40:18 05:43:55 28° 97° (E) 05:47:32 145.90 MHz
JAS-2 21 Oct 05:53:29 06:01:15 71° 102° (ESE) 06:09:02 435.800 - 435.900 CW/SSB, 435.910 FM
RS-15 21 Oct 06:00:41 06:09:33 26° 40° (NE) 06:18:37 29.354 - 29.394 USB, Beacon 29.352 USB
Sapphire 21 Oct 06:08:51 06:11:34 14° 312° (NW) 06:14:17 437.095 MHz 1200 baud AX-25 AFSK
AO-7 21 Oct 06:23:14 06:30:04 30° 299° (WNW) 06:36:55 29.400 - 29.500 MHz
SO-67 21 Oct 06:36:31 06:37:53 12° 93° (E) 06:39:15 435.3500 MHz FM
STRAND 1 21 Oct 07:06:42 07:11:34 45° 260° (W) 07:16:30 ?
Hamsat 21 Oct 07:16:40 07:19:39 19° 290° (WNW) 07:22:38 145.90 MHz
JAS-2 21 Oct 07:39:52 07:45:31 23° 297° (WNW) 07:51:15 435.800 - 435.900 CW/SSB, 435.910 FM
PANSAT 21 Oct 08:00:31 08:02:37 14° 160° (SSE) 08:04:42 not established
SO-67 21 Oct 08:07:55 08:10:54 28° 287° (WNW) 08:13:52 435.3500 MHz FM
RS-15 21 Oct 08:12:11 08:23:29 90° 62° (ENE) 08:35:17 29.354 - 29.394 USB, Beacon 29.352 USB
Saudisat 1A 21 Oct 08:16:49 08:21:11 75° 300° (WNW) 08:25:35 436.775 MHz
Oscar 11 21 Oct 09:17:38 09:20:29 17° 94° (E) 09:23:19 145.825 FM, Beacon 2401.500 USB
HO-68 21 Oct 09:28:17 09:35:29 74° 104° (ESE) 09:42:39 435.675 MHz FM
PANSAT 21 Oct 09:38:55 09:42:15 29° 172° (S) 09:45:35 not established
ZACube-1 21 Oct 09:55:42 09:58:41 19° 94° (E) 10:01:38 437.345 MHz
MaSat-1 21 Oct 10:05:45 10:08:19 56° 66° (ENE) 10:10:41 437.345 MHz
UKube-1 21 Oct 10:07:19 10:11:42 77° 102° (ESE) 10:16:03 145.840 MHz, 145.915 MHz
RS-15 21 Oct 10:27:18 10:34:24 19° 259° (W) 10:41:43 29.354 - 29.394 USB, Beacon 29.352 USB
FUNcube-1 21 Oct 10:40:23 10:44:39 67° 101° (E) 10:48:47 145.950 - 145.970 MHz USB
KITSAT 1 21 Oct 10:46:31 10:50:05 14° 100° (E) 10:53:39 435.175 FM
Oscar 11 21 Oct 10:52:51 10:56:42 32° 288° (WNW) 11:00:31 145.825 FM, Beacon 2401.500 USB
HO-68 21 Oct 11:17:41 11:22:25 19° 300° (WNW) 11:27:09 435.675 MHz FM
PANSAT 21 Oct 11:18:37 11:22:02 31° 185° (S) 11:25:27 not established
ZACube-1 21 Oct 11:31:25 11:35:05 29° 289° (WNW) 11:38:42 437.345 MHz
JAS-1B 21 Oct 12:07:32 12:10:50 15° 64° (ENE) 12:14:01 435.800 - 435.900 CW/SSB
Oscar 10/S400 21 Oct 12:24:03 12:45:37 39° 153° (SSE) 13:03:50 145.825 - 145.975 CW/USB, Beacon 145.810 USB
Oscar 16 21 Oct 12:24:57 12:29:07 25° 68° (ENE) 12:33:17 437.025 USB, Beacon 2401.1428
ISS 21 Oct 12:32:03 12:34:38 21° 129° (SE) 12:37:14 145.800 FM
KITSAT 1 21 Oct 12:36:13 12:44:18 86° 116° (ESE) 12:52:25 435.175 FM
Uribyol 2 21 Oct 12:39:24 12:42:06 14° 64° (ENE) 12:44:49 436.500 FM
ITAMSAT 1 21 Oct 12:44:16 12:47:08 15° 64° (ENE) 12:50:00 435.822 SSB
AO-Echo 21 Oct 12:50:53 12:54:24 21° 67° (ENE) 12:58:00 ?
PANSAT 21 Oct 12:59:06 13:01:43 18° 197° (SSW) 13:04:20 not established
SO-50 21 Oct 13:03:56 13:08:15 52° 115° (ESE) 13:12:41 436.795 FM
Sapphire 21 Oct 13:14:03 13:18:50 31° 56° (ENE) 13:23:35 437.095 MHz 1200 baud AX-25 AFSK
Oscar 19 21 Oct 13:17:52 13:23:02 84° 76° (ENE) 13:28:12 437.125 CW, 437.150 USB
AO-27 21 Oct 13:26:34 13:31:23 40° 71° (ENE) 13:36:14 436.795 MHz FM
PCSat 21 Oct 13:36:41 13:42:00 52° 61° (ENE) 13:47:15 145.825 MHz
JAS-1B 21 Oct 13:54:48 14:01:05 61° 258° (WSW) 14:06:46 435.800 - 435.900 CW/SSB
Oscar 16 21 Oct 14:03:40 14:08:16 33° 262° (W) 14:12:54 437.025 USB, Beacon 2401.1428
ISS 21 Oct 14:08:13 14:11:12 30° 324° (NW) 14:14:12 145.800 FM
Uribyol 2 21 Oct 14:15:51 14:21:00 62° 259° (WSW) 14:26:11 436.500 FM
Gurwin Techsat 1B 21 Oct 14:18:59 14:24:13 66° 74° (ENE) 14:29:30 435.225 FM
ITAMSAT 1 21 Oct 14:20:58 14:26:04 58° 259° (W) 14:31:14 435.822 SSB
AO-Echo 21 Oct 14:28:28 14:32:52 36° 262° (W) 14:37:25 ?
TMSAT-1 21 Oct 14:32:39 14:37:53 65° 74° (ENE) 14:43:09 436.925 FM
KITSAT 1 21 Oct 14:34:53 14:40:40 21° 315° (NW) 14:46:30 435.175 FM
SO-50 21 Oct 14:46:20 14:49:07 16° 312° (NW) 14:51:58 436.795 FM
UOSAT-12 21 Oct 14:47:30 14:51:58 54° 115° (ESE) 14:56:33 437.025 FM, 437.400 FM
Sapphire 21 Oct 14:57:26 15:02:10 31° 252° (WSW) 15:06:52 437.095 MHz 1200 baud AX-25 AFSK
AO-27 21 Oct 15:07:13 15:10:59 20° 265° (W) 15:14:48 436.795 MHz FM
